Weather History for GMMX - October, 2013

Change the Weather History Date:

Friday, October 25, 2013

  Actual Average Record
Temperature  
Mean Temperature 70 °F -  
Max Temperature 81 °F 72 °F 93 °F (2001)
Min Temperature 59 °F 50 °F 32 °F (2000)
Cooling Degree Days 5    
Growing Degree Days 20 (Base 50)    
Moisture  
Dew Point 60 °F    
Average Humidity 79    
Maximum Humidity 100    
Minimum Humidity 41    
Precipitation  
Precipitation 0.00 in 0.05 in - ()
Sea Level Pressure  
Sea Level Pressure 30.00 in    
Wind  
Wind Speed 7 mph ()    
Max Wind Speed 63 mph    
Max Gust Speed 31 mph    
Visibility 4.4 miles    
Events Fog    
Averages and records for this station are not official NWS values.
T = Trace of Precipitation, MM = Missing Value Source: Averaged Metar Reports

Daily Weather History Graph

Daily Weather History Graph

Search for Another Location

Airport or City:

Trip Planner

Search our weather history database for the weather conditions in past years. The results will help you decide how hot, cold, wet, or windy it might be!

Date:

Astronomy

Oct. 25, 2013 Rise Set
Actual Time 7:42 AM WEST 6:49 PM WEST
Civil Twilight 7:17 AM WEST 7:14 PM WEST
Nautical Twilight 6:49 AM WEST 7:42 PM WEST
Astronomical Twilight 6:20 AM WEST 8:10 PM WEST
Moon No Moon Rise 1:08 PM WEST (10/25)
Length of Visible Light 11h 56m
Length of Day
11h 06m
Waning Gibbous, 64% of the Moon is Illuminated
Oct 25
Waning Gibbous
Oct 27
Last Quarter
Nov 3
New
Nov 10
First Quarter
Nov 17
Full

Hourly Weather History & Observations

Time (WEST) Temp. Dew Point Humidity Pressure Visibility Wind Dir Wind Speed Gust Speed Precip Events Conditions
12:00 AM 69.8 °F 62.6 °F 78% 30.01 in - South 3.5 mph - N/A   Clear
12:30 AM 68.0 °F 60.8 °F 78% 30.01 in - SE 3.5 mph - N/A   Clear
1:00 AM 65 °F 60 °F 78% 29.95 in 6 mi East 5.8 mph - -   Clear
1:00 AM 64.4 °F 59.0 °F 83% 29.98 in - East 5.8 mph - N/A   Clear
1:30 AM 64.4 °F 60.8 °F 88% 29.98 in - ENE 4.6 mph - N/A   Clear
2:00 AM 64.4 °F 59.0 °F 83% 29.95 in - East 6.9 mph - N/A   Clear
2:30 AM 62.6 °F 59.0 °F 88% 29.95 in - NE 3.5 mph - N/A   Clear
3:00 AM 60.8 °F 59.0 °F 94% 29.98 in - West 10.4 mph - N/A   Clear
3:30 AM 60.8 °F 59.0 °F 94% 29.98 in - West 6.9 mph - N/A   Clear
4:00 AM 61 °F 61 °F 100% 29.94 in 6 mi SW 8.1 mph - -   Clear
4:00 AM 60.8 °F 60.8 °F 100% 29.98 in - SW 6.9 mph - N/A   Clear
4:30 AM 60.8 °F 60.8 °F 100% 29.95 in 5.6 mi SW 9.2 mph - N/A   Unknown
4:47 AM 60.8 °F 60.8 °F 100% 29.98 in 0.5 mi SW 6.9 mph - N/A Fog Fog
5:00 AM 60.8 °F 60.8 °F 100% 29.95 in 0.5 mi SW 6.9 mph - N/A Fog Fog
5:30 AM 60.8 °F 60.8 °F 100% 29.98 in 0.6 mi SSW 5.8 mph - N/A Fog Fog
5:51 AM 62.6 °F 62.6 °F 100% 29.98 in 0.7 mi Variable 2.3 mph - N/A   Scattered Clouds
6:00 AM 62.6 °F 62.6 °F 100% 29.98 in 0.7 mi Variable 2.3 mph - N/A   Scattered Clouds
6:30 AM 62.6 °F 62.6 °F 100% 29.98 in 0.7 mi SW 3.5 mph - N/A   Scattered Clouds
7:00 AM 63 °F 63 °F 100% 29.95 in 1 mi West 4.6 mph - -   Mist
7:00 AM 62.6 °F 62.6 °F 100% 29.98 in 0.7 mi West 4.6 mph - N/A   Scattered Clouds
7:30 AM 62.6 °F 62.6 °F 100% 29.98 in 1.2 mi SW 5.8 mph - N/A   Scattered Clouds
7:52 AM 62.6 °F 62.6 °F 100% 30.01 in 1.2 mi WSW 6.9 mph - N/A   Scattered Clouds
8:00 AM 62.6 °F 62.6 °F 100% 29.98 in 1.9 mi SW 6.9 mph - N/A   Scattered Clouds
8:30 AM 62.6 °F 62.6 °F 100% 30.01 in 1.9 mi SW 4.6 mph - N/A   Mostly Cloudy
9:00 AM 62.6 °F 62.6 °F 100% 30.01 in 2.5 mi SW 4.6 mph - N/A   Mostly Cloudy
9:03 AM 62.6 °F 62.6 °F 100% 30.01 in 5.0 mi South 3.5 mph - N/A   Mostly Cloudy
9:30 AM 64.4 °F 64.4 °F 100% 29.98 in 5.0 mi SE 5.8 mph - N/A   Mostly Cloudy
10:00 AM 65 °F 63 °F 91% 29.97 in 5 mi WNW 4.6 mph - -   Partly Cloudy
10:00 AM 64.4 °F 62.6 °F 94% 30.01 in 5.0 mi WNW 4.6 mph - N/A   Scattered Clouds
10:30 AM 68.0 °F 62.6 °F 83% 30.01 in 6.2 mi NW 3.5 mph - N/A   Scattered Clouds
11:00 AM 69.8 °F 62.6 °F 78% 30.04 in 6.2 mi WNW 5.8 mph - N/A   Scattered Clouds
11:30 AM 69.8 °F 62.6 °F 78% 30.04 in 6.2 mi West 5.8 mph - N/A   Scattered Clouds
12:00 PM 71.6 °F 62.6 °F 73% 30.01 in 6.2 mi NNW 4.6 mph - N/A   Scattered Clouds
12:30 PM 73.4 °F 60.8 °F 65% 30.01 in 6.2 mi North 63.3 mph - N/A   Scattered Clouds
1:00 PM 72 °F 61 °F 61% 29.94 in 6 mi NNW 5.8 mph - -   Mostly Cloudy
1:00 PM 73.4 °F 60.8 °F 65% 30.01 in 6.2 mi NNW 5.8 mph - N/A   Mostly Cloudy
1:30 PM 73.4 °F 60.8 °F 65% 29.98 in 6.2 mi North 5.8 mph - N/A   Mostly Cloudy
2:00 PM 75.2 °F 60.8 °F 61% 29.98 in 6.2 mi North 4.6 mph - N/A   Mostly Cloudy
2:30 PM 77.0 °F 60.8 °F 57% 29.95 in 6.2 mi WNW 6.9 mph - N/A   Mostly Cloudy
3:00 PM 77.0 °F 59.0 °F 54% 29.95 in 6.2 mi NW 6.9 mph - N/A   Mostly Cloudy
3:30 PM 77.0 °F 57.2 °F 50% 29.95 in 6.2 mi WNW 6.9 mph - N/A   Mostly Cloudy
4:00 PM 77 °F 58 °F 41% 29.89 in 6 mi West 5.8 mph - -   Mostly Cloudy
4:00 PM 77.0 °F 59.0 °F 54% 29.98 in 6.2 mi Variable 4.6 mph - N/A   Mostly Cloudy
4:30 PM 77.0 °F 57.2 °F 50% 29.98 in 6.2 mi West 8.1 mph - N/A   Mostly Cloudy
5:00 PM 77.0 °F 57.2 °F 50% 29.98 in 3.7 mi West 10.4 mph - N/A   Mostly Cloudy
5:03 PM 75.2 °F 59.0 °F 57% 30.01 in 0.5 mi West 13.8 mph 31.1 mph N/A   Sand
5:21 PM 71.6 °F 59.0 °F 64% 30.01 in 1.2 mi West 21.9 mph - N/A   Sand
5:30 PM 71.6 °F 59.0 °F 64% 30.01 in 1.2 mi West 21.9 mph - N/A   Sand
5:35 PM 69.8 °F 59.0 °F 68% 30.01 in 3.1 mi WNW 16.1 mph - N/A   Scattered Clouds
6:00 PM 69.8 °F 59.0 °F 68% 30.01 in 5.0 mi West 18.4 mph - N/A   Scattered Clouds
6:30 PM 68.0 °F 55.4 °F 64% 30.04 in 6.2 mi West 15.0 mph - N/A   Scattered Clouds
7:00 PM 67 °F 56 °F 61% 30.01 in 6 mi WNW 11.5 mph - -   Mostly Cloudy
7:00 PM 68.0 °F 57.2 °F 68% 30.04 in 6.2 mi WNW 12.7 mph - N/A   Mostly Cloudy
7:30 PM 66.2 °F 57.2 °F 73% 30.06 in 6.2 mi WNW 12.7 mph - N/A   Mostly Cloudy
8:00 PM 66.2 °F 59.0 °F 78% 30.06 in 6.2 mi West 10.4 mph - N/A   Mostly Cloudy
8:30 PM 66.2 °F 57.2 °F 73% 30.06 in 6.2 mi West 9.2 mph - N/A   Mostly Cloudy
9:00 PM 64.4 °F 57.2 °F 77% 30.09 in 6.2 mi West 5.8 mph - N/A   Mostly Cloudy
9:30 PM 64.4 °F 57.2 °F 77% 30.09 in 6.2 mi WSW 6.9 mph - N/A   Mostly Cloudy
10:00 PM 64 °F 56 °F 69% 30.06 in 6 mi WSW 5.8 mph - -   Mostly Cloudy
10:00 PM 64.4 °F 55.4 °F 73% 30.09 in 6.2 mi WSW 6.9 mph - N/A   Mostly Cloudy
10:30 PM 64.4 °F 55.4 °F 73% 30.09 in 6.2 mi SW 5.8 mph - N/A   Mostly Cloudy
11:00 PM 64.4 °F 55.4 °F 73% 30.09 in 6.2 mi SW 5.8 mph - N/A   Scattered Clouds
11:30 PM 64.4 °F 55.4 °F 73% 30.09 in 6.2 mi WSW 3.5 mph - N/A   Scattered Clouds